[[{"header":{"parameterUnit":"m.s-1","parameterCategory":1,"la1":30.2992,"la2":30.254,"lo1":-89.0895,"lo2":-89.0443,"dy":0.0025,"dx":0.0025,"nx":19,"ny":19,"refTime":"2026-05-23T21:00:00:Z","depth":0,"parameterNumber":2,"parameterNumberName":"U-component_of_WINDS"},"data":[0,0,0,2.8097,2.8091,2.7743,2.7741,2.7356,2.7353,0,0,0,0,0,0,0,0,0,0,0,2.8247,2.8246,2.8098,2.8091,2.7743,2.7741,2.7357,2.7353,0,0,0,0,0,0,0,0,0,0,0,2.8247,2.8246,2.8245,2.809,2.7743,2.7741,2.7357,2.7596,0,0,0,0,0,0,0,0,0,0,2.7923,2.8109,2.8247,2.8245,2.8088,2.7744,2.7741,2.7607,2.7581,2.7543,0,2.753,0,2.7437,2.7332,2.7331,0,0,0,2.8054,2.8131,2.7996,2.8245,2.8085,2.7745,2.7889,2.7592,2.7563,2.751,2.7523,2.7507,2.743,2.733,2.7329,2.725,2.7251,0,0,2.8073,2.8208,2.8016,2.798,2.8048,2.7901,2.7879,2.7573,2.7594,2.7522,2.7497,2.7424,2.7328,2.7326,2.7249,2.725,0,0,0,2.8153,2.8223,2.8093,2.7998,2.7931,2.7892,2.7866,2.7607,2.7554,2.7492,2.7419,2.7327,2.7323,2.7247,2.7249,2.7452,0,0,0,2.8163,2.8269,2.8104,2.8183,2.7938,2.7767,2.7909,2.7575,2.7536,2.7421,2.7326,2.732,2.7245,2.7248,2.7443,2.7526,0,0,0,2.8253,2.8279,2.8246,2.8191,2.8047,2.7769,2.7697,2.7564,2.7494,2.7331,2.7319,2.7244,2.7248,2.7435,2.7512,2.7545,0,0,0,2.8387,2.8429,2.8252,2.8267,2.8051,2.79,2.7697,2.7575,2.746,2.7325,2.7245,2.7249,2.7433,2.7503,2.7538,2.76,2.7639,0,0,2.8514,2.8449,2.8446,2.8278,2.8194,2.7941,2.7881,2.7644,2.75,2.7339,2.7335,2.7446,2.7511,2.7543,2.7804,2.7837,0,0,0,2.8532,2.8533,2.848,2.8381,2.8205,2.8057,2.7815,2.7725,2.7583,2.7449,2.7461,2.7496,2.7509,2.7532,2.7559,2.7561,2.7265,2.7265,2.7265,2.8906,2.8724,2.8707,2.8484,2.8388,2.8137,2.8039,2.7874,2.7715,2.772,2.7673,2.7854,2.7887,2.7906,2.7911,2.7689,2.7689,2.769,2.769,2.9075,2.9048,2.8836,2.8746,2.8549,2.8466,2.8221,2.8111,2.7999,2.7876,2.7878,2.7762,2.7948,2.7941,2.7704,2.7701,2.77,2.7698,2.7698,2.9302,2.9257,2.9151,2.8985,2.8875,2.864,2.8545,2.8366,2.8196,2.8199,2.8127,2.8123,2.8097,2.8177,2.8178,2.8178,2.8179,2.8179,2.8179,2.9582,2.9455,2.9402,2.9216,2.9126,2.8983,2.8726,2.8629,2.8474,2.8351,2.8349,2.8189,2.8,2.7958,2.8188,2.8187,2.8186,2.8185,2.8184,2.9826,2.9742,2.9661,2.9572,2.9334,2.9234,2.9006,2.8823,2.8715,2.8672,2.8506,2.8397,2.8315,2.8292,2.8256,2.8549,2.8549,2.8549,2.8549,3.002,2.9961,2.9836,2.9704,2.9552,2.9338,2.924,2.9037,2.8811,2.8731,2.866,2.8596,2.858,2.8507,2.8479,2.8442,2.8776,2.8776,2.8776,3.0159,3.0077,3.0036,2.9823,2.9621,2.945,2.9352,2.92,2.8924,2.8782,2.8663,2.8654,2.8546,2.8522,2.8384,2.8345,2.8273,0,0]},{"header":{"parameterUnit":"m.s-1","parameterCategory":1,"la1":30.2992,"la2":30.254,"lo1":-89.0895,"lo2":-89.0443,"dy":0.0025,"dx":0.0025,"nx":19,"ny":19,"refTime":"2026-05-23T21:00:00:Z","depth":0,"parameterNumber":3,"parameterNumberName":"V-component_of_WINDS"},"data":[0,0,0,4.4121,4.4117,4.3885,4.3884,4.3606,4.3604,0,0,0,0,0,0,0,0,0,0,0,4.4205,4.4204,4.4122,4.4116,4.3885,4.3884,4.3606,4.3604,0,0,0,0,0,0,0,0,0,0,0,4.4205,4.4204,4.4202,4.4115,4.3885,4.3884,4.3607,4.3774,0,0,0,0,0,0,0,0,0,0,4.3995,4.4088,4.4204,4.4202,4.4114,4.3886,4.3884,4.3782,4.3764,4.372,0,4.3689,0,4.3642,4.3587,4.3586,0,0,0,4.4104,4.4104,4.4028,4.4202,4.4112,4.3886,4.3986,4.3771,4.3751,4.3696,4.3685,4.3674,4.3638,4.3585,4.3584,4.3382,4.3381,0,0,4.4116,4.417,4.4042,4.4016,4.4057,4.3993,4.3979,4.3759,4.3748,4.3683,4.3667,4.3633,4.3583,4.3581,4.3382,4.3382,0,0,0,4.4162,4.418,4.4109,4.4028,4.3985,4.3987,4.397,4.3758,4.373,4.3663,4.363,4.3582,4.3579,4.3382,4.3382,4.3417,0,0,0,4.4169,4.4206,4.4115,4.4146,4.399,4.3869,4.3975,4.3746,4.3719,4.3631,4.3582,4.3576,4.3383,4.3382,4.3417,4.3423,0,0,0,4.4214,4.4211,4.4183,4.4149,4.4052,4.3872,4.3831,4.3739,4.3699,4.3585,4.3575,4.3383,4.3382,4.3416,4.3423,4.3384,0,0,0,4.4278,4.4217,4.4185,4.4103,4.4055,4.3897,4.3832,4.3711,4.3618,4.358,4.3383,4.3382,4.3416,4.3422,4.3385,4.3361,4.3357,0,0,4.423,4.4213,4.416,4.4125,4.3988,4.3928,4.3793,4.3655,4.3593,4.3455,4.3449,4.3417,4.3423,4.3384,4.3319,4.3317,0,0,0,4.4163,4.4126,4.4078,4.3994,4.3889,4.3798,4.3676,4.3624,4.3505,4.3535,4.3392,4.3394,4.3369,4.3355,4.3352,4.3326,4.3379,4.3379,4.3379,4.4171,4.4098,4.4005,4.3904,4.3823,4.3698,4.3623,4.3532,4.348,4.3447,4.3405,4.3375,4.336,4.3358,4.3332,4.3388,4.3388,4.3388,4.3388,4.4093,4.4027,4.3962,4.3849,4.377,4.3672,4.3548,4.3514,4.3409,4.3401,4.3375,4.3371,4.3358,4.333,4.339,4.339,4.339,4.339,4.3389,4.4088,4.4044,4.3985,4.3855,4.3762,4.366,4.3563,4.3494,4.3428,4.3403,4.3349,4.3348,4.3336,4.3383,4.3383,4.3383,4.3383,4.3383,4.3383,4.4106,4.4038,4.3966,4.3851,4.3787,4.3694,4.3567,4.35,4.3409,4.3366,4.3365,4.3315,4.3372,4.3386,4.3381,4.3381,4.3381,4.3381,4.3382,4.4049,4.4051,4.3941,4.3878,4.3734,4.3645,4.356,4.3431,4.3366,4.3319,4.3274,4.3329,4.3304,4.3305,4.3316,4.3293,4.3293,4.3293,4.3293,4.4044,4.4026,4.3897,4.3799,4.3695,4.3607,4.3479,4.3379,4.3275,4.3229,4.3223,4.3233,4.3238,4.321,4.3213,4.3222,4.3175,4.3175,4.3175,4.4003,4.3973,4.3879,4.3782,4.3665,4.3564,4.3441,4.3327,4.321,4.3169,4.3191,4.3196,4.3211,4.3221,4.3178,4.3185,4.32,0,0]}]]